Location: Firdgum
(53.2488°N, 5.5615°E)
Time: 05:59:56
(UTC+00:00)

Cosmos 2227 Rocket - Pass Details

Date: 08 December 2019
Orbit: 840 x 844 km, 71.0° (Epoch: 21 January)

Event Time Altitude Azimuth Distance (km) Brightness Sun altitude
Exits shadow 05:55:59 20° 296° (WNW) 1,846 3.3 -14.2°
Maximum altitude 05:57:57 24° 326° (NW) 1,673 3.3 -13.9°
Drops below altitude 10° 06:02:32 10° 20° (NNE) 2,476 4.6 -13.3°
Sets 06:05:28 0° 34° (NE) 3,414 5.5 -12.9°
